Location: Newark
(47.3150°N, 5.1150°E)
Time: 14:11:33
(UTC+00:00)

O/OREOS (USA 219) - Pass Details

Date: 18 December 2019
Orbit: 621 x 646 km, 72.0° (Epoch: 22 May)

Event Time Altitude Azimuth Distance (km) Brightness Sun altitude
Exits shadow 03:41:57 14° 48° (NE) 1,773 ? -36.0°
Drops below altitude 10° 03:44:11 10° 77° (ENE) 2,036 ? -35.7°
Sets 03:47:27 0° 102° (ESE) 2,935 ? -35.1°
